Theta_e
306 306 306 306 306 307 307 307 307 307 306 307 308 308 307 307 307 308 309 310 311 311 311 311 312 313 314 315 316 316 315 315 314 311 312 315 317 316 315 315 309 307 313 315 316 319 320 323 324 323 321 319 321 322 323 324 324 324 327 329 328 330 330 329 330 328 327 329 326 318 317 320 321 318 316 317 318 320 320 321 322 324 326 327 328 327 328 331
306 306 306 306 306 306 306 306 306 306 306 306 307 307 307 307 307 307 308 309 310 311 311 311 312 313 314 314 315 316 315 315 313 311 314 318 320 319 318 318 314 311 315 317 316 318 320 322 324 324 320 319 321 322 322 323 324 325 327 328 328 330 330 328 328 326 327 328 326 321 317 318 321 319 318 319 320 320 320 322 322 323 326 328 328 328 330 331
306 306 306 306 306 305 306 306 306 307 307 307 307 307 308 307 307 307 307 308 309 310 310 311 312 313 313 314 315 315 315 313 311 312 317 317 317 317 315 315 317 317 317 317 317 318 320 322 323 324 321 319 320 321 322 323 324 325 327 326 327 329 328 327 327 326 325 326 327 323 317 317 318 319 318 320 321 321 320 321 321 322 323 327 329 330 331 331
305 305 305 306 305 305 306 306 307 307 306 307 307 307 307 307 308 308 307 308 309 310 310 311 311 312 313 314 314 315 314 312 311 315 318 315 314 314 311 310 314 319 319 318 319 317 319 322 323 323 321 319 320 322 321 322 324 324 325 325 326 328 327 327 326 326 325 324 325 321 316 317 317 317 318 320 321 321 321 321 321 322 321 327 329 329 331 332
305 305 305 305 305 305 305 306 306 306 306 306 306 307 307 307 308 308 308 308 308 309 310 311 311 312 313 313 314 315 314 311 313 318 317 314 314 313 311 308 309 317 321 319 320 320 321 323 323 322 321 319 321 321 320 321 323 324 324 324 326 327 326 326 327 326 324 322 322 319 317 319 317 317 318 320 321 322 322 321 321 321 321 327 330 330 332 332
304 304 304 304 304 304 305 305 305 306 306 306 306 306 307 307 308 308 308 308 308 309 310 311 311 311 312 313 314 315 313 312 316 318 318 316 316 313 312 310 307 314 321 321 322 323 322 322 322 322 322 320 320 319 320 322 322 322 323 324 325 326 326 326 327 325 323 322 322 319 319 318 317 318 318 318 321 322 319 318 319 319 321 328 331 330 330 331
304 304 304 304 304 303 304 304 304 305 305 306 306 306 306 307 307 308 308 308 308 309 310 310 311 311 312 313 314 314 313 314 316 318 319 318 316 313 312 312 308 312 321 323 321 322 322 321 322 323 322 321 320 320 321 322 322 322 322 323 324 324 325 326 325 323 322 322 322 319 319 319 319 320 318 317 320 320 316 317 318 317 321 328 330 329 329 331
304 304 304 304 303 303 303 304 304 304 305 305 306 306 306 307 307 307 308 308 308 308 309 310 310 311 311 312 313 313 313 314 314 315 316 315 314 313 312 312 309 311 320 323 321 321 321 322 323 322 322 321 319 320 321 320 321 322 322 322 323 322 324 324 323 321 321 321 320 319 322 323 320 319 318 319 321 319 319 320 320 319 323 327 328 330 330 332
304 304 304 304 304 303 303 304 304 304 304 305 306 306 306 307 307 307 307 307 308 308 308 309 310 311 311 312 313 313 313 313 313 313 313 313 312 310 309 310 309 311 319 323 322 322 321 321 322 321 321 321 320 320 321 319 319 321 322 322 323 322 323 323 323 323 322 322 322 322 327 325 319 318 321 321 320 320 320 322 322 322 324 325 327 329 330 331
304 304 304 304 303 303 303 304 304 304 304 305 305 306 306 306 307 307 307 307 307 307 308 309 310 310 310 311 311 312 313 311 311 311 311 311 310 308 308 309 310 313 317 321 323 323 321 321 323 321 320 321 320 320 321 319 319 320 321 322 322 322 323 322 323 324 323 323 323 324 328 325 319 320 325 324 321 320 320 322 324 324 324 326 327 328 331 332
304 304 304 303 303 303 303 303 304 304 304 305 306 306 306 306 306 306 306 307 307 307 308 309 309 309 310 311 310 311 312 311 311 311 310 310 310 310 311 310 311 315 318 320 322 323 322 322 322 321 321 321 320 320 320 319 319 320 320 322 322 322 323 322 323 323 323 324 323 324 327 325 320 321 326 325 323 322 321 323 325 324 324 326 327 328 330 332
304 304 303 303 303 303 303 303 304 304 304 305 305 305 305 306 306 306 306 306 307 308 308 308 309 309 310 310 309 310 311 311 311 312 311 311 312 311 311 311 312 313 317 319 321 322 323 323 321 321 321 320 320 320 319 319 320 320 320 321 322 322 322 322 323 323 323 324 323 324 326 326 324 323 325 324 323 323 322 324 326 326 325 326 327 327 328 330
305 304 304 304 303 304 303 303 304 304 305 305 305 305 305 306 306 306 306 306 307 307 308 308 308 309 309 308 309 310 309 310 310 310 311 311 311 311 310 310 311 313 315 318 320 320 322 323 322 321 321 320 322 321 319 319 319 319 320 320 321 320 320 321 322 323 323 323 322 323 323 324 326 326 326 325 323 323 323 324 326 326 327 327 327 328 328 329
305 305 305 304 304 304 304 304 304 304 305 305 305 305 305 306 306 306 306 306 306 306 307 308 308 309 309 308 309 309 308 308 310 310 311 312 311 310 310 309 310 312 314 317 320 321 322 323 322 322 322 322 323 322 321 320 318 319 320 320 319 319 319 320 322 323 323 322 322 324 322 322 325 326 326 325 323 323 324 324 325 326 327 327 328 328 328 329
305 305 305 305 305 305 305 305 305 305 305 305 305 305 305 306 305 306 306 305 306 305 306 307 308 308 307 307 308 308 307 308 309 309 310 311 311 311 311 310 310 312 315 318 320 322 322 323 323 323 322 322 323 323 324 322 320 320 321 321 320 319 319 320 322 322 322 322 323 324 322 322 324 326 327 325 323 323 325 326 325 325 326 327 327 327 327 329
305 304 304 304 305 305 305 305 306 305 305 305 305 305 305 305 305 305 305 305 305 305 305 306 307 308 307 307 307 308 309 311 310 309 309 310 311 312 311 311 310 312 317 318 319 322 322 322 323 323 322 323 324 324 325 323 322 321 321 322 322 320 319 318 321 322 321 322 323 324 322 322 324 324 325 325 323 323 325 327 326 326 325 325 327 327 327 327
304 304 304 304 304 304 305 305 306 306 305 305 305 305 305 305 305 305 304 304 305 305 306 307 308 307 307 307 307 308 309 311 310 309 310 310 311 311 311 311 312 313 316 318 318 320 321 321 323 323 323 323 324 324 324 323 323 323 322 322 323 322 319 317 319 321 322 323 323 324 323 322 323 324 325 324 323 324 325 326 327 327 326 326 326 326 326 326
304 304 303 303 303 303 304 304 305 306 306 306 305 305 305 305 305 304 304 304 304 305 305 306 306 305 306 307 307 308 308 309 310 309 310 310 310 310 310 311 312 314 315 316 317 319 320 321 322 324 324 323 323 324 323 321 321 323 323 323 322 321 320 319 319 319 322 323 323 324 324 323 323 324 324 324 322 323 325 326 327 327 327 326 326 325 325 326
303 303 303 302 302 302 303 304 305 306 306 306 305 305 305 304 304 304 304 305 304 304 304 305 305 304 305 306 307 308 307 308 309 309 309 309 309 309 309 311 312 313 314 314 315 318 320 321 322 323 324 323 322 322 321 320 319 320 322 323 323 322 321 320 319 318 321 323 324 324 324 323 324 323 323 324 323 322 324 325 326 327 327 327 326 325 325 325
302 302 302 302 302 302 302 303 304 305 306 305 305 305 304 304 303 303 304 304 304 304 304 305 306 305 305 305 307 308 307 307 308 308 308 308 308 308 309 311 312 312 313 313 314 317 319 320 321 321 321 322 321 320 320 319 318 318 319 320 321 322 321 319 319 318 320 322 323 322 323 322 323 323 322 323 323 323 324 325 326 327 327 327 326 326 326 325
302 302 302 302 302 303 303 303 304 305 305 305 305 305 304 303 303 303 303 304 304 305 305 305 305 306 305 306 308 308 308 308 307 308 307 307 308 309 309 310 312 312 313 313 314 317 319 319 318 318 318 319 320 320 321 320 320 319 319 319 319 321 321 319 319 318 319 321 321 321 322 322 322 323 323 322 324 324 324 324 325 326 325 326 326 326 326 326
301 301 301 301 302 303 303 304 304 305 305 305 305 305 304 303 302 302 303 303 304 305 305 305 305 305 305 306 307 307 307 307 307 308 308 307 308 309 309 310 311 313 313 313 314 315 317 317 316 315 316 317 320 321 321 321 321 321 320 320 319 319 320 319 318 317 318 320 322 321 322 321 321 323 324 323 323 324 324 324 325 325 325 325 325 325 326 326
301 301 301 301 302 303 304 304 304 304 305 305 305 304 304 304 302 302 303 302 303 304 304 305 305 304 305 305 306 306 306 306 307 308 309 308 308 308 310 310 311 312 313 313 313 313 314 314 313 314 315 317 320 322 322 321 321 322 321 321 320 319 319 318 318 318 318 319 321 321 321 320 320 322 323 323 323 324 324 324 324 325 325 325 325 325 325 325
302 302 302 302 302 303 304 304 304 304 305 305 304 304 304 303 303 303 303 302 303 303 303 304 305 305 305 305 305 305 305 305 305 307 309 309 308 308 309 310 311 312 312 312 313 312 312 313 314 314 315 317 320 321 322 323 323 322 322 322 320 319 318 317 318 318 318 319 318 319 321 320 319 320 320 321 322 323 323 323 324 324 324 324 324 324 324 324
303 302 303 303 303 303 304 304 304 304 304 305 304 304 304 303 303 303 303 302 301 302 302 303 304 304 304 305 305 305 305 305 305 307 310 309 308 308 308 310 310 311 312 312 313 313 311 312 314 316 317 317 319 320 321 323 323 321 322 322 320 320 319 317 317 318 318 319 319 319 322 321 319 319 319 319 320 321 321 322 323 323 323 323 323 323 324 324
303 303 303 304 304 304 304 304 304 304 304 304 304 304 304 304 304 303 302 301 301 302 302 303 304 303 304 305 305 305 305 305 305 307 310 309 308 309 310 310 309 310 311 312 312 313 312 310 311 315 319 319 318 318 319 321 323 322 321 320 320 320 320 319 318 319 319 320 319 319 321 322 320 319 319 318 319 319 320 321 321 322 323 323 323 323 323 323
303 303 303 303 304 304 304 304 304 303 303 303 303 304 304 304 303 301 301 300 301 302 303 303 303 302 303 306 306 304 304 305 306 307 309 310 309 309 310 310 310 310 310 311 313 313 312 311 310 311 316 319 320 318 317 319 322 323 320 320 321 321 321 321 320 319 319 319 319 318 320 321 320 319 319 318 318 318 318 320 320 320 321 322 322 322 323 323
303 303 303 303 303 304 304 304 304 304 303 303 303 304 304 303 301 300 299 299 300 301 303 304 303 302 303 306 305 304 304 304 304 307 308 309 309 309 310 310 310 310 309 310 313 312 311 312 310 310 312 315 317 318 317 318 320 321 320 320 321 321 321 321 321 320 320 321 321 319 320 321 321 319 318 318 317 318 318 319 319 319 320 320 320 321 321 322
302 303 303 302 302 304 304 304 304 304 303 303 303 304 303 301 300 300 298 299 299 298 302 305 304 304 306 306 305 304 304 304 305 307 308 308 309 310 310 310 310 310 310 310 311 312 313 313 311 310 310 310 312 315 318 319 319 319 320 320 319 321 321 320 321 321 322 324 323 320 319 320 320 319 318 318 317 317 318 318 318 319 319 319 319 319 319 320
302 302 302 301 302 303 304 304 304 304 303 303 303 303 301 299 299 300 299 299 298 298 302 304 304 305 307 306 306 305 304 305 307 308 308 308 309 309 309 309 309 310 311 310 310 311 312 312 313 312 312 310 309 312 317 319 317 316 319 321 320 321 321 322 323 323 324 326 323 321 319 319 321 320 318 319 318 317 318 317 318 318 317 318 318 319 319 318
302 302 301 301 302 302 303 304 304 304 303 304 303 301 299 298 299 301 301 299 297 299 303 304 305 307 306 306 307 306 305 306 308 308 309 309 309 309 308 308 309 309 311 312 311 311 311 311 313 314 314 314 312 312 317 319 317 316 319 322 322 322 322 323 323 323 325 327 324 321 320 320 321 320 318 318 318 317 317 317 317 317 316 317 318 318 317 317
302 301 301 301 302 302 303 303 303 303 303 303 301 300 300 300 300 300 300 297 297 300 303 304 306 307 306 306 306 306 306 306 307 308 309 309 309 310 308 308 310 310 311 312 311 311 311 310 311 313 315 317 315 313 316 319 318 318 319 321 323 323 323 325 324 324 325 326 323 321 321 322 322 319 317 317 317 316 316 316 316 316 316 316 318 318 318 317
301 301 301 301 302 302 302 302 303 303 302 301 300 300 301 300 301 300 298 296 297 301 302 304 306 306 306 307 306 306 306 306 307 307 308 308 309 309 308 308 310 309 309 311 311 311 311 310 311 311 312 315 316 315 315 317 317 317 319 321 322 323 324 325 324 324 325 324 322 320 321 323 321 318 318 317 317 316 315 315 316 316 316 315 317 318 318 318
301 301 301 301 301 301 302 302 303 302 301 300 299 300 301 301 302 301 299 297 298 301 303 305 305 305 305 306 306 306 306 306 307 307 307 308 308 309 309 309 310 309 307 309 311 311 311 312 312 311 310 313 316 315 314 315 315 316 316 319 321 322 323 324 322 323 324 322 321 321 322 323 320 318 319 316 316 317 316 316 316 316 316 316 317 317 318 317
301 301 301 301 301 302 303 303 303 301 300 300 300 301 302 302 301 300 299 298 298 302 305 305 304 305 305 305 305 306 306 305 306 307 307 307 307 308 309 309 309 309 308 309 311 310 311 312 311 311 310 311 313 315 315 315 315 316 316 317 319 320 323 323 321 321 322 322 322 322 322 321 318 318 318 316 316 316 316 317 317 317 317 316 316 316 316 316
300 300 300 299 299 300 302 302 302 301 300 301 301 302 303 302 301 300 300 299 299 302 304 303 303 304 304 305 305 305 305 305 305 306 307 307 307 307 308 308 309 309 308 309 311 311 310 310 310 311 311 310 311 313 316 315 314 316 317 317 316 316 320 322 321 321 322 323 322 322 322 320 318 319 318 316 317 316 316 316 316 317 317 317 317 316 317 317
300 299 299 298 298 299 299 300 301 301 301 301 302 302 302 301 300 300 300 299 299 302 302 301 302 302 302 304 305 306 305 304 305 306 306 307 306 307 307 307 308 309 308 308 309 310 310 310 309 310 311 311 310 312 316 316 315 317 317 316 314 314 315 317 320 322 322 322 322 321 322 321 320 320 317 317 318 317 317 316 316 316 316 316 317 317 317 317
300 300 299 298 299 299 299 300 300 300 300 301 301 301 301 301 300 301 301 300 299 300 300 300 300 301 302 302 304 306 305 305 305 305 305 306 306 307 307 307 308 309 309 308 308 308 309 310 309 309 310 312 312 313 315 316 315 315 316 316 315 315 315 315 318 320 321 323 324 322 321 320 320 320 317 317 318 317 317 317 317 316 315 316 316 317 316 315
300 300 299 298 299 299 299 299 299 299 300 301 301 301 300 300 301 301 302 301 301 300 300 300 299 300 301 302 304 305 305 305 306 305 305 306 306 307 308 307 307 308 309 308 308 307 308 309 309 309 309 312 314 313 313 315 315 315 315 314 313 314 315 315 316 317 319 321 323 323 323 322 320 319 318 317 317 317 317 317 317 317 316 316 316 317 316 315
300 300 299 298 299 300 298 298 298 299 300 300 300 300 300 300 300 301 301 301 302 301 299 299 299 299 301 303 304 305 304 305 306 306 305 306 306 307 307 308 308 308 309 309 308 307 307 307 308 309 309 312 314 313 311 312 314 315 316 315 314 314 315 316 317 317 317 318 320 322 324 323 319 318 318 318 317 316 317 317 318 318 316 315 315 316 315 313
300 299 298 299 300 300 299 299 299 300 300 300 300 300 300 301 301 302 302 300 301 301 300 300 300 299 300 302 303 304 304 305 306 306 305 306 305 305 306 308 308 307 308 309 308 307 307 307 307 309 310 312 314 312 312 313 313 314 314 314 313 314 314 315 317 318 319 318 318 319 321 321 316 314 315 316 316 315 315 315 316 316 315 313 315 316 313 311
299 299 298 299 300 300 300 299 299 299 299 299 299 299 300 301 301 302 303 301 300 301 300 301 301 300 300 300 302 304 304 304 306 306 305 306 305 304 306 308 308 306 306 308 308 307 307 307 307 309 311 312 312 310 309 311 314 314 314 314 313 313 314 314 315 317 319 319 319 318 320 319 315 311 313 315 314 313 313 312 313 314 313 313 314 314 310 309
298 298 298 299 300 299 299 299 298 298 299 299 299 299 299 300 301 300 301 301 301 300 301 301 301 301 300 300 301 304 304 304 305 306 305 306 306 305 307 308 307 306 306 307 307 308 307 307 307 308 308 309 310 310 308 308 311 314 314 314 314 313 313 313 312 314 316 318 319 318 319 319 315 312 312 313 311 311 311 310 311 313 314 314 313 312 310 309
296 296 297 299 300 299 298 298 298 298 298 298 298 298 298 299 299 299 299 301 302 301 301 301 301 301 302 302 302 302 303 303 303 305 305 304 305 307 308 306 304 304 306 307 308 308 307 307 307 308 309 309 309 311 310 309 310 312 313 314 314 313 313 313 312 312 313 315 317 318 318 319 317 314 312 313 313 313 312 310 310 313 315 315 313 312 310 309
296 295 295 296 298 299 298 296 296 297 297 298 297 297 297 298 299 299 299 301 303 303 302 302 302 302 302 303 302 302 303 302 302 303 304 304 305 307 308 307 304 303 305 307 309 308 308 308 308 308 309 309 310 310 311 311 311 312 313 314 315 314 313 313 312 312 312 312 314 315 315 315 316 316 315 315 315 314 314 312 310 312 314 314 315 313 310 309
297 296 296 296 296 297 297 295 296 298 298 298 298 297 297 297 298 300 300 300 302 302 302 302 302 302 302 301 302 302 302 303 302 303 303 304 305 306 307 306 305 305 305 307 308 308 308 308 308 309 309 308 309 310 311 311 312 313 313 314 314 314 314 313 312 312 312 311 312 312 312 312 313 313 312 313 313 312 314 315 313 313 313 314 317 315 310 309
296 295 295 296 295 296 297 296 297 298 298 297 298 298 298 298 298 299 300 300 300 300 301 301 301 302 302 301 302 302 302 303 303 303 302 303 304 306 306 306 306 306 307 307 307 307 308 308 308 309 309 308 308 310 312 311 311 312 313 313 314 314 314 314 313 312 311 311 311 311 312 312 310 309 309 310 310 311 314 316 314 313 313 315 317 315 311 309
296 294 292 294 296 296 296 297 297 298 298 298 299 299 299 299 299 299 299 300 300 300 300 301 301 301 302 302 302 302 302 303 303 303 303 303 304 305 305 306 306 306 306 307 307 307 308 309 309 309 309 309 308 310 312 312 311 311 313 313 314 314 314 314 314 313 312 312 311 312 313 312 309 308 309 310 309 310 313 315 314 313 314 315 317 319 318 316
296 295 293 294 296 296 297 297 297 298 298 298 299 300 300 299 300 299 299 300 301 301 301 301 301 302 302 302 302 302 302 303 302 303 303 304 304 304 304 305 306 305 306 306 306 306 306 308 309 309 309 309 309 309 310 311 311 311 312 312 313 314 314 314 314 314 314 314 313 313 313 312 310 309 309 309 311 312 313 314 312 312 314 316 319 323 322 320
296 297 296 296 297 297 297 297 297 298 299 299 300 300 300 300 300 300 300 300 301 301 301 301 302 302 302 302 302 302 302 302 302 303 303 304 304 304 304 305 305 305 305 306 306 305 305 307 309 309 308 308 308 309 309 309 310 310 311 311 312 313 314 314 314 314 314 314 314 314 313 312 310 310 310 310 312 314 313 313 312 312 314 315 317 319 319 321
295 296 296 297 298 298 298 298 298 299 300 300 300 301 300 301 301 300 300 301 301 301 301 302 302 302 302 301 301 301 301 302 302 302 303 303 304 304 304 304 306 306 306 306 306 305 305 307 308 308 309 309 309 309 310 309 309 309 310 310 311 312 313 313 313 314 314 314 314 314 314 313 311 310 311 311 311 311 310 310 311 311 312 314 314 314 316 321
294 295 295 297 298 298 299 299 299 299 300 300 300 301 301 301 300 300 301 301 301 301 301 301 302 302 302 301 301 301 301 302 302 302 303 303 303 304 305 305 306 306 306 306 306 305 306 307 308 308 309 310 310 310 310 310 310 310 309 309 309 310 312 312 313 313 313 313 314 314 313 312 311 311 312 311 311 310 310 310 310 310 312 314 313 313 316 317
Wind_Speed
15 15 14 13 13 13 12 12 12 12 11 10 11 11 12 12 12 13 12 11 11 11 12 12 13 13 13 13 12 13 15 17 18 15 10 8 11 13 14 13 14 15 14 13 11 11 9 6 9 10 5 3 2 1 1 1 1 3 3 5 5 5 4 3 5 3 1 1 3 4 6 8 6 5 3 2 5 3 3 5 3 2 4 2 2 2 5 13
15 14 14 14 14 13 12 12 12 12 11 10 10 11 12 12 12 13 13 12 11 11 12 12 12 13 13 13 12 13 15 16 16 13 7 8 10 9 8 9 8 8 9 9 7 7 6 5 7 8 2 2 1 0 2 1 3 5 4 5 6 6 3 1 3 4 3 2 1 2 5 8 6 4 5 5 6 6 6 7 5 6 7 4 2 3 9 14
15 14 14 14 14 14 13 13 13 13 12 11 10 10 11 11 12 12 12 12 11 11 11 12 12 12 12 13 12 12 13 14 12 5 2 8 9 9 12 13 10 4 7 8 5 3 4 4 5 5 0 3 2 1 3 3 4 5 4 6 7 6 4 3 5 6 5 3 2 2 2 6 6 3 5 5 5 6 9 8 7 9 11 8 6 7 10 14
14 14 14 14 14 14 13 13 13 13 13 12 11 10 11 11 11 11 11 12 11 11 11 11 11 11 11 12 11 10 10 11 6 5 7 9 12 13 15 18 15 4 4 5 5 5 4 4 4 2 1 4 2 2 4 4 4 3 5 8 7 5 6 7 7 7 6 3 4 1 3 5 5 3 5 6 6 7 10 10 10 12 12 10 9 9 12 14
14 14 14 14 14 14 14 13 13 13 13 12 12 11 11 11 11 11 10 11 11 10 10 10 10 11 11 10 10 8 7 6 2 11 10 9 10 11 13 18 18 8 1 3 4 4 5 4 3 1 2 4 4 4 6 6 3 3 8 10 5 4 7 8 6 6 4 2 3 3 4 3 4 5 7 8 9 6 3 5 9 11 8 8 11 11 13 14
14 14 14 14 14 14 14 14 14 13 13 13 13 12 11 11 11 10 10 10 10 10 10 10 10 10 9 8 8 5 3 4 4 11 10 7 4 10 16 19 17 10 3 4 4 5 4 3 4 3 2 3 6 6 4 3 2 5 8 8 5 5 8 5 2 5 5 5 6 4 3 3 5 6 6 10 13 4 5 2 3 5 2 7 11 12 12 14
14 14 15 14 14 14 14 14 14 13 13 13 13 13 12 11 11 11 10 10 10 10 9 9 9 9 9 8 6 3 5 6 5 10 7 1 9 16 22 20 13 8 4 4 4 5 5 4 5 3 4 4 5 6 2 0 2 7 8 5 5 5 8 5 3 2 6 6 4 2 2 4 8 6 4 10 16 6 4 3 2 1 3 8 11 12 13 14
14 14 14 14 14 14 14 13 13 13 13 13 13 13 12 11 11 11 10 10 10 10 9 9 9 9 8 6 5 5 7 12 14 11 10 15 20 22 22 16 9 4 3 2 4 5 4 5 5 2 5 4 3 5 2 2 6 9 10 5 3 3 7 6 3 2 4 3 1 2 4 5 6 2 2 10 14 8 4 2 1 2 5 8 11 12 12 12
14 14 14 14 14 14 14 14 13 13 13 13 13 12 12 12 11 11 10 10 10 10 9 9 10 9 8 5 5 7 6 10 16 16 17 19 17 14 10 5 3 2 3 1 3 6 4 5 5 2 4 2 3 5 3 5 7 6 7 5 5 5 6 5 5 7 5 3 1 4 10 6 3 0 6 13 10 5 5 4 3 4 6 8 10 12 12 12
14 15 15 15 14 14 14 14 13 13 13 13 13 13 13 12 12 11 10 10 10 10 9 9 10 9 8 5 6 8 4 5 10 9 10 10 6 5 6 4 2 1 0 1 3 6 6 5 4 1 3 2 3 3 3 5 2 1 3 6 8 10 8 4 5 8 4 5 5 8 13 5 4 3 8 8 4 5 6 7 6 5 7 8 9 10 11 11
15 15 15 15 15 14 14 13 13 13 13 13 13 13 13 12 12 11 10 10 10 10 10 9 10 9 8 5 9 7 1 1 4 4 4 3 3 4 7 6 5 2 1 1 3 6 7 7 3 2 2 1 4 2 3 3 1 1 2 6 8 9 10 7 7 8 4 5 8 10 13 5 4 5 10 4 3 4 7 8 7 8 8 7 8 8 8 9
15 15 15 15 15 15 14 14 14 13 13 12 12 13 13 12 12 11 11 10 9 9 9 9 9 8 7 7 11 10 6 7 7 8 10 10 6 3 4 5 5 3 1 3 4 4 7 7 5 5 2 1 4 2 2 1 1 2 2 7 8 7 12 12 12 10 7 5 5 6 10 10 8 9 14 7 4 3 5 7 7 8 7 6 7 7 7 8
15 15 14 14 15 15 15 15 14 14 14 13 12 12 12 12 11 11 10 10 9 9 8 8 9 7 6 7 7 8 11 15 17 18 18 17 12 8 6 3 3 4 3 5 6 5 7 7 8 8 2 2 3 1 1 1 2 4 4 7 7 8 12 13 12 9 10 6 6 7 9 12 13 14 16 8 6 5 5 7 8 7 7 6 6 6 7 8
14 14 14 14 14 14 15 15 15 15 14 14 13 12 12 11 11 10 10 10 9 9 8 7 9 7 6 7 6 8 12 14 16 16 14 14 13 10 8 7 5 5 5 6 7 7 7 6 9 8 4 4 3 3 3 2 2 4 4 5 6 8 8 8 9 10 11 6 7 10 10 11 12 15 18 10 8 9 9 10 9 7 7 6 6 6 7 8
15 14 14 13 13 14 15 15 15 14 14 14 13 13 11 10 11 10 10 10 9 10 9 8 8 6 6 8 8 9 12 13 16 17 15 15 13 9 7 6 6 4 4 5 6 6 6 5 6 6 5 5 5 5 4 3 3 4 4 6 8 10 6 5 8 12 14 6 8 12 9 10 12 12 15 11 9 11 12 13 11 9 8 7 7 7 7 7
16 15 14 14 14 14 15 15 14 14 14 14 13 13 12 11 11 10 10 9 8 8 8 6 5 4 7 7 4 5 5 8 11 16 18 18 15 12 7 5 6 6 5 4 4 5 4 4 4 5 5 5 6 7 5 5 5 5 8 8 8 10 9 5 5 10 15 9 11 16 10 7 8 9 10 8 10 12 12 15 14 12 10 9 7 7 7 6
16 16 15 15 15 15 15 15 15 14 14 13 12 13 12 11 11 10 9 7 7 6 5 5 2 3 6 4 3 4 3 5 7 10 13 13 14 14 9 6 8 7 5 2 3 3 3 4 2 4 5 6 7 7 6 9 9 8 8 9 9 9 8 7 3 5 11 10 11 16 15 10 4 3 6 5 9 13 13 16 16 14 12 10 8 7 7 7
15 16 16 16 16 16 16 16 15 14 14 12 11 12 11 11 11 9 8 6 5 4 4 3 2 4 5 5 5 2 2 5 8 8 8 8 10 12 9 6 5 5 5 3 3 4 4 4 4 4 6 8 8 9 11 9 8 10 10 9 10 8 9 9 3 3 8 9 10 12 15 17 9 3 5 5 8 12 14 16 16 15 15 12 10 8 8 9
16 17 17 17 17 17 16 16 16 15 14 11 10 10 8 7 8 7 4 4 3 3 3 3 6 3 1 3 4 2 2 4 7 7 6 7 7 8 9 6 6 7 6 5 5 7 5 4 5 6 7 11 12 14 15 6 2 5 9 9 9 8 9 8 2 1 5 7 10 13 14 16 15 12 12 9 8 11 14 15 14 14 15 12 10 9 9 10
17 18 18 18 17 17 16 16 16 15 12 10 7 5 5 4 4 3 2 3 7 8 5 2 8 8 4 2 1 2 1 3 4 3 2 7 6 7 7 5 6 8 8 8 7 6 6 7 8 9 12 15 17 17 17 10 3 4 5 8 10 10 9 6 4 2 3 6 10 15 16 16 16 16 17 15 9 10 13 14 13 12 12 11 11 11 11 11
19 19 19 19 18 17 16 15 16 15 11 9 6 3 3 4 2 1 1 5 9 10 11 9 9 11 9 4 2 4 2 1 3 2 2 6 7 7 6 6 8 8 10 11 7 4 5 8 12 16 17 16 16 16 17 16 14 9 6 6 8 11 10 5 6 5 3 5 9 11 14 17 17 14 16 17 14 12 12 13 14 14 13 11 11 13 12 10
20 20 20 20 19 18 16 15 15 14 11 6 7 6 5 6 4 1 1 5 8 10 13 12 12 13 12 9 4 0 3 3 4 3 4 6 7 8 6 8 10 9 10 10 7 6 6 10 18 19 15 14 14 15 17 18 18 14 9 8 7 7 7 4 5 5 4 4 7 8 12 14 15 13 13 17 18 15 12 13 14 13 13 12 11 11 10 10
21 21 21 21 20 18 17 15 14 13 9 5 9 9 7 8 7 2 1 5 7 7 10 11 11 11 12 12 9 6 6 7 7 6 8 9 6 7 6 9 11 10 10 11 11 11 9 11 18 17 13 13 14 13 16 17 14 13 11 11 10 6 5 5 5 7 6 5 3 4 9 12 12 12 13 15 17 15 13 14 14 12 12 12 11 10 10 11
22 22 22 20 19 18 16 15 14 11 8 6 9 11 10 10 9 4 2 4 6 5 8 10 9 9 10 9 10 12 11 8 7 6 10 12 5 3 6 8 10 10 10 14 17 15 13 10 6 10 14 14 13 12 14 13 11 13 14 14 13 9 7 5 2 3 6 6 3 3 7 10 12 14 13 12 13 15 15 15 14 13 13 11 11 12 11 12
23 22 22 19 18 16 15 14 11 7 5 5 9 13 13 11 11 7 2 2 5 3 4 6 6 5 7 7 10 12 8 9 11 6 9 14 7 3 5 4 5 11 13 16 17 13 17 12 2 6 12 14 15 14 15 13 10 12 16 17 17 14 12 7 2 2 6 7 7 7 8 9 11 16 16 12 12 15 14 15 17 16 14 13 12 13 12 12
23 23 21 19 17 15 13 10 5 4 4 6 9 12 14 13 13 10 3 1 5 3 2 2 4 2 3 6 9 9 6 8 13 10 9 14 10 4 5 4 3 9 11 12 10 8 12 12 7 7 9 14 17 15 15 14 10 10 12 16 18 16 14 11 7 6 8 7 3 7 9 9 7 11 15 14 15 19 16 15 19 17 14 14 13 13 12 12
24 22 20 18 17 14 10 5 3 5 4 5 7 9 16 17 14 9 2 2 5 1 4 0 2 1 1 8 12 9 3 2 7 12 13 16 12 2 6 7 4 5 4 5 6 5 7 10 10 11 9 11 12 12 14 15 11 8 6 10 15 17 17 15 12 10 10 8 2 4 8 10 9 11 12 13 15 17 17 18 20 17 14 14 13 12 12 13
23 21 19 18 17 15 12 8 6 7 7 6 4 8 19 18 13 7 2 2 2 2 2 0 1 0 1 10 14 8 1 4 4 8 13 17 13 4 6 11 9 6 6 7 8 3 3 8 10 12 11 9 9 10 11 13 13 7 3 7 12 15 17 15 13 12 9 8 8 8 7 8 12 11 9 11 15 17 17 18 17 15 13 13 12 12 13 14
21 19 18 18 16 15 16 15 12 10 10 7 5 11 21 18 9 2 2 2 1 2 1 2 2 1 3 9 12 7 2 2 1 2 6 13 12 6 5 9 10 10 8 11 13 6 1 4 6 10 11 10 13 13 9 12 12 4 4 8 10 11 14 14 12 11 8 8 11 13 12 11 12 10 9 10 14 17 16 14 13 12 12 11 12 13 13 13
20 19 18 17 16 15 13 14 15 13 9 8 10 18 21 13 4 2 3 2 0 2 2 2 3 4 8 9 8 10 7 4 1 1 5 8 10 9 3 1 4 6 8 11 16 12 1 1 2 6 8 8 13 12 8 10 7 2 2 8 9 7 8 9 9 7 8 8 10 15 17 15 12 9 9 10 12 14 13 11 9 9 10 12 11 12 12 12
20 19 18 16 16 15 9 8 12 13 11 12 16 20 15 5 0 3 4 0 1 2 3 2 4 7 10 9 7 10 10 7 3 4 5 5 7 8 5 3 2 3 6 8 12 13 7 4 3 2 2 4 10 8 3 5 5 2 3 7 6 5 3 4 5 5 7 8 10 16 19 18 16 10 6 8 10 11 12 13 11 8 11 11 10 10 11 11
20 19 17 15 15 14 11 10 11 12 16 20 21 15 6 2 3 3 2 1 0 3 3 1 3 6 10 10 6 8 9 7 4 6 6 7 6 8 10 9 6 4 7 7 10 11 10 10 7 3 3 4 9 8 4 4 7 7 6 6 6 6 4 5 5 5 7 7 6 13 17 15 16 15 12 12 9 6 8 9 10 9 9 9 9 9 8 7
19 17 16 15 14 14 16 15 13 13 19 24 18 6 2 3 4 4 4 3 1 1 3 2 4 5 7 7 5 7 8 5 3 6 8 8 7 9 13 13 9 6 4 6 10 8 6 9 11 8 5 6 9 9 7 6 9 11 9 8 8 7 7 9 8 5 8 8 3 8 13 10 10 13 15 20 18 13 12 8 7 8 9 10 9 8 7 7
17 16 16 15 13 13 14 16 17 17 23 23 10 2 4 3 3 5 7 5 1 3 3 4 5 6 5 5 4 5 7 5 3 5 6 6 6 8 11 13 12 7 1 4 9 8 7 7 10 13 8 9 13 12 9 6 7 11 10 8 8 7 6 7 8 8 9 6 1 6 9 7 7 5 3 9 14 15 16 13 12 10 8 8 7 7 8 7
14 11 10 9 9 10 10 15 19 21 23 15 4 3 5 4 3 3 4 3 1 1 3 5 4 4 3 4 4 4 5 4 4 5 6 6 7 8 9 10 14 11 5 6 5 6 11 8 8 17 13 12 15 13 9 6 5 7 8 8 10 7 5 5 5 5 5 4 2 5 6 5 7 7 2 1 2 6 11 12 14 14 10 7 7 8 8 8
12 11 10 11 10 8 7 12 22 28 22 8 3 6 6 3 1 1 1 2 1 3 5 2 2 2 2 3 4 6 4 2 3 4 5 7 9 9 9 8 12 14 11 9 4 3 10 7 5 12 12 10 13 13 12 9 6 5 7 8 4 1 3 6 6 2 3 8 6 6 7 7 8 12 11 9 5 4 7 7 11 14 12 10 9 9 9 9
11 11 11 13 13 11 5 12 27 29 16 5 5 7 3 1 2 2 1 2 1 4 4 3 2 2 3 3 4 6 5 3 4 3 3 5 6 7 10 9 10 16 16 12 6 2 6 5 2 7 9 7 5 8 14 12 4 3 7 7 3 4 1 3 5 3 3 8 7 8 12 11 8 7 6 9 12 12 11 11 11 8 7 9 9 10 10 8
7 4 7 15 15 11 4 16 26 18 7 4 8 6 0 1 1 2 1 2 2 1 3 4 3 3 3 3 3 5 6 4 4 5 3 3 4 6 10 9 8 14 18 15 9 2 2 5 2 2 3 2 2 6 12 10 3 0 3 3 2 3 5 5 5 5 5 6 5 9 13 11 10 9 4 6 11 12 12 12 12 8 8 10 11 11 8 4
7 1 5 15 14 7 8 15 17 8 2 3 4 4 1 1 2 1 1 1 2 0 3 2 2 3 4 2 1 4 7 6 5 5 4 3 4 4 7 7 7 12 17 15 10 4 2 4 4 0 2 2 4 7 10 8 4 1 2 3 2 3 5 6 7 6 6 7 5 6 10 8 9 12 10 8 7 7 8 9 10 11 11 9 8 6 2 2
5 1 4 15 12 7 14 14 8 2 1 2 1 2 0 1 2 1 2 2 1 1 2 2 2 2 4 3 2 3 6 7 5 5 4 4 5 4 6 8 7 10 14 15 12 7 3 4 5 1 2 2 5 8 10 12 9 6 7 9 7 4 2 3 5 5 5 7 7 6 6 5 4 6 10 11 6 4 6 7 8 8 4 1 3 4 2 2
3 1 4 13 6 12 13 9 3 1 0 1 1 2 0 1 2 2 1 2 2 1 1 3 4 4 5 5 4 3 4 5 6 6 5 5 6 5 4 5 3 2 6 11 11 8 4 4 6 3 2 5 7 6 5 7 9 10 10 10 11 9 6 5 6 4 3 6 7 7 7 5 2 1 3 6 4 3 4 6 7 6 4 4 3 4 2 2
2 3 5 10 4 11 5 2 2 1 1 1 0 0 2 1 2 3 1 1 2 2 1 2 4 5 5 5 4 3 4 4 5 6 6 6 10 8 4 5 4 4 1 5 8 9 4 2 6 6 5 5 4 0 2 4 7 11 10 8 9 9 9 9 8 6 5 7 7 7 10 6 1 0 1 2 3 4 4 4 5 5 4 3 4 4 2 2
3 2 4 5 6 6 2 1 3 1 1 1 2 1 2 2 2 2 1 1 2 2 2 2 3 5 6 5 3 4 5 5 6 8 6 7 9 9 7 6 5 6 4 3 6 7 4 2 6 7 4 4 4 3 2 3 3 8 10 9 9 9 11 10 7 4 6 8 7 7 10 6 1 1 2 1 2 4 4 4 5 4 3 4 5 4 3 1
1 0 2 4 3 2 3 1 1 1 2 1 2 3 2 1 3 5 4 3 2 2 3 3 3 4 5 4 4 6 6 5 7 9 8 7 5 3 5 7 5 4 4 4 3 3 4 6 8 7 5 4 5 5 5 4 3 5 9 11 12 13 14 10 4 4 6 8 8 8 9 6 2 2 2 2 1 1 2 2 4 2 2 4 3 2 2 2
1 1 0 3 2 1 1 1 1 1 1 2 3 5 3 2 4 7 7 5 3 3 3 3 3 4 3 2 3 5 6 6 6 6 6 6 3 1 3 5 6 6 6 7 6 1 3 7 8 8 8 7 7 6 5 6 6 4 6 10 14 17 17 12 7 8 9 10 11 10 8 7 5 5 6 4 2 1 1 2 2 2 3 4 3 2 2 2
1 1 0 2 3 1 0 1 1 1 2 2 3 3 3 3 3 4 6 6 5 5 4 3 2 2 4 4 4 5 8 9 7 5 5 5 2 1 1 3 6 7 7 9 7 2 2 7 9 11 11 10 9 6 4 5 7 7 8 11 13 16 17 13 9 9 9 8 10 11 10 12 14 13 12 10 10 10 5 4 3 4 4 4 3 1 2 2
0 1 1 1 1 0 1 1 2 2 1 1 2 1 3 5 5 2 3 5 4 4 4 3 3 5 6 6 7 8 9 9 9 8 9 8 5 4 2 3 5 9 10 9 7 4 2 6 11 15 16 15 13 8 6 8 10 11 12 13 14 15 16 15 12 11 10 9 11 11 12 16 20 19 16 12 13 13 8 6 5 4 3 3 1 1 2 3
1 0 1 0 1 0 1 1 3 4 5 3 2 2 5 8 8 5 3 3 2 3 4 3 4 10 11 9 8 8 8 8 8 7 6 7 7 6 5 5 6 10 10 6 4 4 3 5 9 14 16 17 16 9 5 6 8 10 11 13 14 15 16 16 16 16 13 11 11 11 13 17 19 20 17 14 14 14 9 6 3 2 2 3 2 2 2 2
1 0 1 1 1 2 2 2 2 5 7 6 3 4 6 8 9 8 4 3 4 5 6 6 7 10 11 11 11 10 9 8 7 5 4 6 7 5 5 5 4 5 7 4 3 3 2 5 7 11 15 17 16 12 8 7 7 8 10 13 14 15 17 16 16 17 15 13 12 13 16 17 17 19 18 12 10 9 5 3 3 4 4 4 3 2 2 3
1 1 1 1 3 4 5 4 4 5 5 5 4 4 5 7 10 9 4 4 6 3 5 9 12 9 9 10 11 11 13 11 10 8 6 6 6 5 4 5 2 2 3 3 2 3 4 4 4 6 10 12 13 14 14 12 11 11 12 11 9 11 14 15 15 15 15 15 16 17 17 14 13 18 18 9 3 4 7 6 6 6 6 6 6 4 2 5
5 4 2 3 4 4 4 3 3 4 4 3 4 3 3 6 7 6 5 7 10 8 6 9 12 9 7 8 9 12 15 13 14 15 12 10 8 5 4 4 2 2 3 4 3 4 5 3 2 3 6 6 9 12 14 15 16 17 15 12 10 10 12 15 15 15 15 15 16 17 15 12 13 18 17 10 7 8 13 13 11 12 10 7 7 7 7 8
7 4 2 3 3 3 5 4 3 3 3 2 4 4 4 7 5 3 4 5 9 11 9 9 9 7 6 8 11 14 15 14 15 15 11 9 8 7 6 6 6 6 5 4 4 4 5 4 4 5 6 7 7 10 12 13 11 11 12 15 17 16 14 14 13 14 16 15 13 12 13 14 16 15 14 12 11 12 14 14 13 15 13 7 6 8 9 10
Wind_Direction
324 325 325 323 320 319 317 316 316 316 314 311 312 312 309 307 306 306 309 312 315 316 312 316 322 328 331 325 316 313 318 323 324 317 305 327 328 305 296 291 275 271 288 302 315 326 328 340 358 352 318 275 282 256 260 267 197 205 217 228 233 230 223 203 203 200 323 48 126 166 195 219 213 170 175 176 210 210 168 201 211 228 240 249 42 31 141 149
323 324 325 323 320 318 317 316 315 315 314 310 308 307 309 307 305 304 305 307 310 311 310 313 317 324 328 327 318 312 323 323 313 301 300 8 360 325 327 338 312 281 282 283 301 327 325 345 354 346 319 225 226 248 239 177 198 217 215 226 230 229 218 221 233 208 223 268 116 175 204 219 226 163 167 209 205 193 210 207 205 230 225 197 161 137 148 157
323 324 324 323 321 321 322 320 318 317 316 315 312 308 309 308 307 306 305 304 306 309 310 310 315 321 322 327 322 314 326 320 302 288 101 63 50 47 39 23 9 323 270 260 262 285 300 329 326 323 311 217 200 197 236 176 194 222 215 229 231 224 228 235 235 229 224 258 277 222 183 214 225 154 168 217 217 200 222 219 200 221 223 197 159 151 161 168
323 322 322 322 322 322 322 320 318 316 314 318 316 310 308 308 308 308 307 302 301 305 308 309 311 316 318 326 324 322 331 312 285 149 124 89 76 60 37 19 19 3 254 244 236 240 266 274 279 304 202 211 180 202 233 192 186 203 206 234 234 204 233 235 221 231 225 239 275 201 145 213 209 173 193 207 216 219 230 229 215 223 221 191 157 158 172 175
324 323 323 321 322 322 320 318 316 314 313 316 314 311 311 308 309 310 309 303 300 302 306 308 306 311 316 321 324 330 329 306 138 138 139 110 87 49 14 1 11 18 159 185 198 210 234 241 231 226 226 213 175 202 221 202 200 211 216 239 245 190 229 237 215 220 207 209 243 192 189 194 152 187 211 207 221 231 229 232 226 233 225 174 163 164 173 182
324 323 323 321 320 319 319 317 315 315 315 316 315 316 313 310 310 309 308 304 302 301 302 306 304 306 310 315 323 325 276 279 136 155 158 125 73 2 343 340 360 21 82 156 162 185 201 215 220 198 199 210 196 207 207 183 225 237 227 233 243 227 233 244 211 202 184 198 215 204 204 146 162 208 206 214 231 235 63 38 259 253 217 142 154 162 174 187
323 323 323 322 320 318 318 317 315 315 314 315 316 316 313 311 310 307 308 305 303 302 301 305 302 300 305 311 311 272 231 257 213 181 181 325 318 320 319 324 347 24 76 168 172 188 197 204 221 189 178 204 203 206 196 78 248 247 240 227 235 241 244 265 15 189 191 208 215 161 176 179 205 213 169 219 235 228 87 56 357 355 148 146 156 168 184 191
322 322 322 322 321 320 319 317 316 315 314 314 314 314 313 311 308 306 307 305 306 303 299 301 300 300 303 306 288 254 232 247 250 247 273 292 298 301 301 309 326 18 80 199 198 201 214 212 213 177 207 212 185 193 176 237 228 235 244 251 262 246 250 270 338 285 218 231 237 178 225 221 214 195 190 230 237 227 169 120 82 137 158 170 179 181 188 195
323 322 322 321 321 319 320 319 318 315 313 313 313 315 313 312 311 308 307 304 305 302 299 299 297 297 294 290 274 262 240 250 264 271 279 285 297 307 306 304 306 24 90 174 209 214 215 219 220 204 234 229 187 195 164 219 218 215 241 274 280 264 263 273 277 259 235 240 237 234 250 240 173 96 251 242 235 207 175 173 163 161 180 190 192 190 191 196
322 322 320 320 320 318 318 317 318 316 313 312 313 314 314 314 313 309 308 304 303 301 299 297 295 296 290 274 253 257 252 268 279 280 275 286 320 12 35 58 73 47 97 138 192 219 218 230 239 228 277 261 205 200 172 214 220 139 260 290 278 271 271 260 257 257 245 241 226 240 258 243 133 210 245 240 208 167 182 196 186 192 207 203 201 198 196 201
322 321 320 320 319 318 317 316 316 315 313 312 312 313 313 314 312 311 309 305 305 301 298 298 295 291 285 260 241 243 199 293 320 352 320 338 28 50 50 47 48 46 308 242 215 227 227 232 233 208 252 183 184 207 215 233 320 301 281 284 271 271 266 237 235 248 247 242 216 229 257 246 137 213 241 235 112 170 202 199 189 206 219 208 206 203 201 211
318 317 317 318 317 317 316 315 314 312 312 312 311 313 313 312 312 311 309 305 303 299 297 292 286 290 286 263 248 247 246 258 285 308 304 311 311 329 12 20 18 10 328 272 259 255 239 231 215 221 243 159 187 194 237 257 268 233 251 267 260 267 264 240 229 228 217 230 189 205 256 242 202 213 238 231 126 172 212 208 199 205 216 207 206 206 208 215
316 316 313 311 312 314 314 312 310 309 309 310 310 310 309 311 314 312 309 304 297 296 298 285 281 293 283 265 259 254 251 259 272 278 282 290 286 284 301 326 4 354 324 280 276 279 256 235 219 227 269 253 217 134 278 285 230 214 205 248 258 262 257 236 221 206 207 216 153 184 246 241 217 211 229 221 156 186 213 220 215 205 211 204 204 210 213 214
328 325 318 312 307 307 308 307 306 305 305 306 307 306 308 311 311 311 308 303 297 291 292 288 286 287 265 261 268 268 263 264 271 269 269 275 273 273 275 276 291 310 315 292 284 283 267 245 227 231 253 247 271 331 268 245 223 200 185 222 237 247 244 207 193 183 202 205 153 203 244 247 226 205 214 211 173 200 221 226 222 211 211 207 206 214 220 215
342 338 333 327 317 309 305 302 299 299 301 303 304 304 307 305 307 312 307 305 299 289 290 291 291 283 267 269 267 268 265 255 255 256 256 261 260 264 268 263 270 296 323 303 291 288 263 237 224 227 226 224 259 276 246 224 224 196 194 214 215 230 232 177 176 183 203 199 166 206 239 246 236 206 202 199 184 205 225 230 226 219 215 213 212 214 225 222
345 344 345 342 335 324 315 307 298 293 292 296 301 301 300 300 305 309 307 305 297 294 292 280 281 277 274 279 251 248 245 226 240 247 246 247 246 249 256 256 265 284 312 312 294 289 250 222 224 226 215 198 220 233 232 232 226 210 218 224 205 213 228 207 174 191 210 207 184 208 232 238 230 213 202 188 191 206 224 231 229 226 222 217 217 214 224 229
341 341 343 341 339 334 328 320 309 299 287 286 294 294 292 295 299 304 306 302 295 301 290 269 295 277 265 270 241 242 228 209 232 245 240 239 242 243 241 245 256 260 263 273 275 265 224 214 222 223 212 207 210 205 217 228 222 211 212 227 220 209 221 217 170 183 214 222 208 212 229 237 218 201 207 185 201 212 220 230 231 228 227 222 219 216 220 227
334 335 335 334 334 334 332 327 320 307 291 284 285 286 286 290 292 294 289 282 293 310 276 250 255 264 248 241 262 270 178 203 230 246 240 230 235 230 218 216 216 206 220 240 220 200 200 215 225 224 209 209 208 197 209 221 222 217 206 217 225 212 223 228 210 147 197 225 232 218 226 236 235 243 241 211 204 217 221 227 232 231 229 226 219 219 222 224
327 328 328 329 330 330 330 329 325 313 300 290 280 282 289 293 289 277 259 258 252 242 253 197 191 230 279 235 283 317 202 217 228 239 230 216 211 197 197 207 200 192 208 222 199 189 190 211 225 227 214 210 208 206 213 219 9 244 222 220 227 224 227 225 213 114 192 219 230 225 232 236 231 230 239 231 199 216 227 227 231 232 231 228 221 220 223 226
321 322 322 322 324 326 326 327 327 318 306 291 270 273 281 270 272 255 204 217 228 236 270 237 204 234 267 258 0 45 271 244 232 257 236 208 174 158 180 193 198 201 212 217 204 188 195 214 223 224 220 215 213 214 221 233 294 312 270 237 233 236 233 209 188 173 194 228 230 229 237 242 235 224 229 235 214 210 227 231 233 233 232 231 227 226 225 226
316 316 316 317 319 321 322 324 325 319 306 283 246 229 242 227 239 324 201 228 232 237 257 255 232 244 259 266 57 62 14 301 233 270 254 209 174 173 186 177 196 210 213 215 209 193 200 219 227 225 225 223 220 220 224 234 243 256 271 255 242 238 239 217 193 180 155 231 242 236 241 246 243 229 224 234 236 225 223 229 235 234 233 233 232 233 234 234
312 311 312 313 314 315 318 319 319 315 308 275 222 224 232 216 219 348 348 269 246 227 240 250 247 253 257 250 234 325 317 279 253 236 186 184 191 207 193 177 206 220 203 199 207 215 211 227 232 228 228 230 229 222 222 230 235 241 247 251 253 240 238 228 194 185 157 216 245 241 247 252 248 238 225 231 242 244 232 228 237 239 237 236 234 238 241 245
308 309 309 310 312 312 314 313 313 310 295 237 212 223 225 217 221 240 291 291 278 227 222 234 238 243 243 240 223 215 248 245 255 247 180 171 200 221 202 190 213 221 199 196 207 214 213 230 235 229 226 231 234 225 222 228 232 236 236 238 246 232 228 238 205 190 192 219 259 252 254 259 252 241 229 229 241 253 251 239 240 246 246 244 243 245 245 247
306 307 306 306 308 308 311 310 307 301 275 235 225 222 216 216 209 192 199 280 284 240 222 231 232 234 234 231 198 198 221 216 233 249 177 173 184 208 213 210 215 218 209 208 214 221 228 234 232 220 219 223 231 228 222 224 226 231 231 233 241 233 231 252 227 191 214 230 237 251 267 262 245 240 235 228 230 245 254 249 243 242 245 247 247 248 245 245
305 304 302 301 301 302 308 305 296 281 254 229 229 219 213 211 190 180 196 283 276 259 230 227 215 227 232 211 179 186 209 211 218 223 167 182 187 160 209 214 217 223 217 214 217 228 237 238 203 205 215 213 221 226 219 218 225 231 229 229 235 238 239 247 251 239 248 243 211 209 254 263 239 235 236 226 220 228 236 243 244 240 236 236 239 241 240 239
304 301 299 295 294 298 300 296 271 233 215 219 235 220 205 197 181 184 186 290 275 247 150 193 193 202 205 176 161 163 203 224 215 204 177 190 194 183 215 191 202 235 224 214 219 235 242 238 223 215 212 210 217 225 223 219 228 237 227 224 230 237 240 238 234 235 245 253 200 187 239 266 249 232 232 224 223 227 223 227 238 238 232 231 234 236 235 237
305 301 298 292 289 287 281 274 208 192 205 236 259 222 199 189 179 186 189 277 279 183 122 42 219 213 160 166 159 158 207 192 181 204 200 190 183 184 242 210 192 235 216 201 220 227 230 225 217 219 222 219 217 223 223 216 225 245 228 213 220 227 233 234 235 241 246 258 269 191 232 266 264 249 239 220 223 233 226 223 231 233 231 231 233 236 235 239
306 300 296 293 287 273 262 256 218 210 231 251 279 213 193 181 180 189 168 243 291 65 106 165 171 288 99 163 168 168 169 95 144 222 208 190 182 167 233 224 219 218 184 194 224 219 197 214 208 209 222 232 225 226 224 216 227 244 187 198 219 224 227 229 230 239 246 253 252 228 222 255 261 257 241 216 225 241 234 225 227 227 232 236 236 239 237 239
307 301 297 296 290 274 262 252 237 232 236 239 240 201 181 167 172 180 106 215 234 71 117 132 150 238 131 158 183 198 197 165 254 306 186 191 202 202 227 229 225 227 203 207 234 241 168 228 215 202 213 228 229 228 225 223 234 241 158 208 239 232 226 227 228 233 234 238 243 232 222 242 262 258 234 212 222 240 241 233 224 213 222 235 234 236 237 238
308 302 299 297 292 280 263 250 247 237 222 225 207 179 162 146 142 141 152 211 88 111 143 145 172 170 145 149 194 219 222 214 150 82 174 192 209 211 217 199 205 238 222 214 237 244 232 5 250 215 223 235 230 225 227 228 233 42 170 222 238 231 228 230 227 228 231 229 228 225 222 232 257 259 236 227 225 234 244 245 227 196 206 229 234 235 236 236
307 302 301 295 287 279 265 252 248 227 205 202 176 154 139 111 168 185 179 157 34 157 161 180 167 147 157 170 195 211 222 231 177 159 193 191 201 205 199 177 148 249 238 217 236 240 227 226 228 226 260 250 228 218 215 216 189 136 214 220 219 218 231 234 216 213 228 230 217 216 218 225 243 248 233 244 241 233 241 249 245 208 195 215 230 233 231 231
308 305 301 292 282 270 256 251 246 228 206 181 154 138 120 118 198 209 208 0 335 176 144 166 170 154 178 196 207 200 210 232 191 177 204 193 192 203 206 205 176 203 237 216 225 236 233 231 225 229 243 219 219 212 183 185 192 199 213 212 210 207 203 208 207 204 221 238 216 204 209 219 241 252 250 253 254 242 243 250 255 241 209 206 224 236 234 230
312 308 300 290 280 264 257 251 240 219 189 162 142 134 148 160 196 191 192 219 302 66 70 90 157 170 190 203 222 211 216 242 182 191 217 201 200 213 214 212 189 190 236 211 220 229 223 224 218 229 243 199 203 208 193 194 206 208 204 204 211 209 212 214 212 214 225 238 223 188 204 220 248 257 251 247 248 247 244 235 234 237 223 214 220 234 242 236
313 306 299 293 283 272 264 248 229 198 167 150 134 144 157 179 200 166 184 207 339 5 42 83 140 169 195 210 218 203 218 249 209 210 231 204 208 219 218 221 206 198 220 213 226 218 213 226 198 199 208 181 195 214 209 197 205 211 208 210 223 226 232 228 221 226 228 231 165 176 202 212 226 239 252 249 249 244 242 237 232 230 220 220 228 236 243 244
325 324 327 328 312 289 266 238 217 183 160 148 133 166 187 218 201 162 198 196 194 352 65 84 126 153 199 224 230 213 215 242 209 218 242 225 224 220 212 219 210 204 207 216 233 210 223 245 178 188 198 178 191 209 205 199 210 210 202 211 229 234 238 259 258 249 252 251 180 186 217 221 238 265 286 249 276 252 243 238 237 239 226 215 231 237 237 240
16 34 32 23 6 339 292 230 195 171 160 150 155 190 211 226 167 109 149 119 148 121 100 104 137 135 227 218 226 224 207 220 202 212 241 237 243 238 227 226 207 203 207 212 231 208 227 249 147 183 209 193 196 199 188 200 212 191 193 205 222 213 219 255 267 283 282 260 222 196 224 236 263 278 257 227 219 224 230 227 228 235 233 228 231 234 234 240
38 54 44 23 10 5 349 201 178 164 158 153 180 203 218 71 23 358 35 38 60 131 137 224 203 173 224 210 224 214 187 198 210 207 237 233 243 234 228 242 218 205 209 217 232 224 232 257 129 177 214 206 211 205 195 206 210 162 195 195 128 68 83 258 263 247 239 251 235 207 219 222 228 256 250 223 220 216 216 224 224 220 231 245 247 242 239 242
9 54 40 13 5 17 51 176 166 149 140 166 187 201 131 67 354 355 0 30 29 138 192 225 214 205 217 216 225 186 174 197 189 191 225 219 222 210 208 229 225 208 213 221 232 219 211 254 245 167 218 170 143 203 207 215 228 179 215 184 154 216 208 196 225 243 234 244 246 215 215 218 217 226 229 204 212 215 217 228 237 233 229 238 246 246 242 241
343 9 33 2 358 40 102 149 147 121 132 172 187 195 62 330 235 258 231 132 59 261 233 240 246 243 234 235 220 168 182 204 182 195 230 202 204 207 190 206 224 215 211 211 224 223 168 232 247 23 39 136 167 197 211 212 207 267 255 219 224 247 226 209 215 236 244 248 263 227 214 215 224 232 238 222 203 206 218 226 235 236 230 232 251 265 267 256
348 29 36 358 359 101 118 124 117 58 164 118 115 191 59 325 270 257 203 194 236 239 237 226 201 235 242 249 262 191 198 218 208 210 229 201 203 222 193 198 220 227 212 203 212 222 192 216 237 216 83 165 194 200 210 209 196 195 215 217 216 216 231 255 240 238 245 243 248 245 230 224 227 235 242 245 242 226 236 246 245 246 252 323 314 315 329 298
340 82 22 356 26 136 132 118 104 16 128 93 143 180 321 332 308 303 180 173 235 260 284 224 210 228 233 237 253 213 194 223 221 217 228 215 215 231 205 187 204 261 225 212 211 212 200 205 220 212 171 205 212 203 220 229 207 198 206 212 214 212 211 233 237 226 236 240 239 250 252 238 215 301 259 259 280 294 272 271 267 278 329 357 314 303 312 302
8 66 358 349 114 152 147 109 111 104 226 313 70 141 330 350 335 313 305 165 231 235 312 237 230 232 226 239 258 213 205 226 218 218 235 227 220 220 182 141 127 100 127 248 235 215 204 207 218 219 214 223 240 264 320 293 238 216 216 218 218 213 210 220 225 214 214 227 231 250 258 248 174 68 287 282 298 295 281 270 269 285 312 304 285 289 296 296
35 47 357 9 141 167 314 57 90 9 248 338 10 305 314 335 317 314 328 285 238 215 203 211 235 240 234 236 229 211 222 228 215 218 233 239 229 221 209 192 155 121 126 267 254 220 202 205 217 225 238 257 277 291 285 308 261 227 223 224 222 216 214 221 233 241 236 226 222 242 249 243 176 226 255 261 266 273 273 255 254 277 306 281 271 279 284 275
30 150 2 26 139 189 328 58 97 308 252 299 300 268 290 296 259 260 257 250 238 210 216 219 225 232 233 232 229 228 221 219 226 226 232 245 238 220 234 226 188 153 170 191 196 208 216 203 202 216 229 232 239 247 245 231 214 224 224 220 217 216 217 224 245 272 252 231 229 245 248 236 170 139 212 211 164 324 307 253 242 258 312 295 284 285 284 275
340 180 284 7 41 81 0 77 83 308 300 313 288 273 273 253 245 243 243 249 242 215 232 250 236 219 211 211 242 246 233 239 249 239 238 248 248 294 268 228 193 196 210 204 185 180 246 216 200 207 214 213 211 214 226 216 202 217 233 225 218 214 214 216 221 231 234 230 229 236 247 251 235 213 226 229 221 271 248 227 249 242 253 275 276 264 268 261
342 44 338 2 29 39 111 107 86 316 314 302 286 270 239 243 264 237 226 236 227 211 234 263 245 217 207 207 234 250 242 244 249 251 263 260 255 322 266 187 197 204 214 222 208 170 270 233 219 217 218 218 215 198 155 159 179 199 216 222 221 217 215 217 222 225 224 229 237 235 241 259 259 250 248 251 261 269 253 194 206 222 235 258 263 247 257 251
328 44 24 350 21 36 266 194 189 238 265 243 267 286 234 250 280 268 206 223 226 216 238 242 205 220 222 207 224 242 237 234 233 240 257 255 255 285 253 203 217 211 207 217 207 188 251 245 229 228 228 230 231 221 174 172 193 204 208 214 217 213 212 215 223 228 220 224 238 228 220 241 254 254 251 247 253 264 259 221 214 222 250 275 280 226 228 229
355 109 150 282 290 264 302 257 212 243 258 234 214 267 261 266 278 275 239 239 233 197 219 238 208 225 234 223 226 243 238 233 234 234 250 251 248 268 260 224 216 212 205 195 176 179 242 259 235 230 233 236 239 236 194 186 205 206 205 211 210 206 206 211 221 227 223 226 241 234 220 229 245 253 251 241 240 248 246 230 227 245 257 257 249 237 242 242
34 9 222 259 280 261 275 288 262 263 263 252 236 242 254 268 271 264 246 248 252 205 206 243 240 224 230 231 233 245 242 240 247 234 225 231 227 239 259 248 224 206 195 185 174 170 223 264 242 230 234 236 236 235 222 216 225 221 217 216 209 202 201 206 219 226 226 232 243 248 242 237 242 253 253 243 241 249 241 187 194 222 224 217 211 217 264 271
7 309 316 311 284 269 272 275 267 269 265 250 243 236 240 259 265 264 242 223 255 241 184 226 246 238 230 232 233 247 253 257 267 261 240 237 230 220 241 254 245 180 181 201 215 180 200 240 235 230 241 237 231 234 233 231 235 236 232 226 213 207 205 206 214 222 225 231 237 243 250 251 250 256 255 243 221 261 255 240 236 236 221 200 196 195 232 255
331 291 288 290 285 283 276 251 219 255 272 251 247 241 238 254 262 275 262 219 234 249 211 219 246 248 236 237 239 249 253 251 255 258 253 255 256 241 242 246 214 190 201 204 201 186 199 229 224 223 254 247 222 227 233 234 236 237 235 227 212 208 209 208 211 213 212 218 229 238 247 252 248 252 254 235 190 218 244 247 253 259 249 219 199 198 210 229
339 300 287 284 270 270 275 259 224 255 274 253 247 243 260 275 278 291 286 231 223 240 238 235 252 260 252 248 243 247 252 250 253 260 265 273 275 267 265 256 234 231 228 203 199 202 203 234 251 225 247 259 226 215 226 229 232 236 230 219 213 211 210 211 217 218 212 209 217 227 232 239 243 248 254 240 205 206 231 236 237 248 251 239 216 210 211 222